Weather in Dumaguete

Philippines     9°18′15″N   123°18′24″E
temp.,
°C
wind,
m/s
gust,
m/s
humid.,
%
clouds,
%
prec.,
mm/h
press.,
hPa
HPBL,
m
27 february, sat
sat2723:00+23n128967 0.0 100950
02:00+23nnw129033 0.0 100865
05:00+23nnw12910 0.4 100856
08:00+26nne22800 0.6 1010451
11:00+28ene33670 0.0 1009817
14:00+28ne34670 0.3 1008732
17:00+26ne33780 0.6 1007343
20:00+24n22870 0.8 101060
28 february, sun
sun2823:00+24n128910 0.0 101064
02:00+23nnw239038 0.0 100984
05:00+23n239362 0.1 100994
08:00+26nne368171 0.3 1011642
11:00+28ne566961 0.0 1011954
14:00+29ne466742 0.1 1008935
17:00+26nne358010 0.7 1008425
20:00+24n34889 0.7 1010128
1 march, mon
mon123:00+24nne499169 0.1 1010490
02:00+24nne599052 0.2 1009494
05:00+24ne589246 0.1 1009483
08:00+25ne578760 0.4 1012646
11:00+27ne567837 0.4 1012748
14:00+28ne567120 0.5 1009806
17:00+27n46780 0.0 1009439
20:00+24n23875 0.1 101193
2 march, tue
tue223:00+24n248920 0.3 1012117
02:00+23n249129 0.6 1011138
05:00+23nne359389 0.4 1011188
08:00+25ne468452 0.4 1012597
11:00+27ne677389 0.0 1012903
14:00+28ne566794 0.1 1010885
17:00+26nne467981 0.0 1009547
20:00+24nne488964 0.1 1011345
3 march, wed
wed323:00+24ne48913 0.1 1012412
02:00+23ne58879 0.1 1011433
05:00+22nne589114 0.0 1011443
08:00+25ne588031 0.1 1013773
11:00+27ne68682 0.0 1013983
14:00+27ne677416 0.4 1010807
17:00+26ne577963 0.3 1010626
20:00+24nne487537 0.3 1012321